• In Netherlands
  • List of Countries
  • For 7 days
  • Water Temperature
  • Satellite Maps
  • Weather Map
  • Weather Widgets
  • user-avatar
    Login

    Hourly Weather Brest

    Today, 21 July, Friday

    Time Temperature Precipitation Wind Pressure Humidity
    00:00 +21°C° 0.5 mm 1 mps 746 mmHg 89%
    01:00 +20°C° 0.5 mm 1 mps 746 mmHg 91%
    02:00 +19°C° 0.5 mm 2 mps 746 mmHg 93%
    03:00 +19°C° 0.2 mm 2 mps 746 mmHg 93%
    04:00 +18°C° 0.2 mm 2 mps 746 mmHg 94%
    05:00 +18°C° 0.2 mm 2 mps 746 mmHg 94%
    06:00 +19°C° 0.1 mm 2 mps 746 mmHg 90%
    07:00 +20°C° 0.1 mm 2 mps 747 mmHg 87%
    08:00 +21°C° 0.1 mm 2 mps 747 mmHg 83%
    09:00 +24°C° 0.3 mm 2 mps 747 mmHg 78%
    10:00 +25°C° 0.3 mm 2 mps 747 mmHg 73%
    11:00 +26°C° 0.3 mm 2 mps 747 mmHg 67%
    12:00 +27°C° 0.5 mm 2 mps 747 mmHg 66%
    13:00 +27°C° 0.5 mm 2 mps 747 mmHg 65%
    14:00 +28°C° 0.5 mm 2 mps 747 mmHg 63%
    15:00 +27°C° 0.9 mm 1 mps 747 mmHg 68%
    16:00 +27°C° 0.9 mm 1 mps 747 mmHg 72%
    17:00 +26°C° 0.9 mm 1 mps 747 mmHg 77%
    18:00 +25°C° 1 mm 1 mps 747 mmHg 81%
    19:00 +24°C° 1 mm 1 mps 747 mmHg 85%
    20:00 +23°C° 1 mm 1 mps 747 mmHg 90%
    21:00 +22°C° 0.7 mm 1 mps 747 mmHg 91%
    22:00 +22°C° 0.7 mm 1 mps 748 mmHg 93%
    23:00 +20°C° 0.7 mm 2 mps 748 mmHg 94%

    Tomorrow, 22 July, Saturday

    Time Temperature Precipitation Wind Pressure Humidity
    00:00 +21°C° 1.2 mm 1 mps 748 mmHg 95%
    01:00 +21°C° 1.2 mm 1 mps 748 mmHg 96%
    02:00 +20°C° 1.2 mm 1 mps 748 mmHg 96%
    03:00 +20°C° 0.5 mm 1 mps 748 mmHg 97%
    04:00 +20°C° 0.5 mm 1 mps 748 mmHg 97%
    05:00 +20°C° 0.5 mm 1 mps 747 mmHg 97%
    06:00 +20°C° 0.1 mm 1 mps 748 mmHg 94%
    07:00 +21°C° 0.1 mm 1 mps 748 mmHg 92%
    08:00 +22°C° 0.1 mm 1 mps 748 mmHg 89%
    09:00 +23°C° 0.4 mm 2 mps 749 mmHg 84%
    10:00 +24°C° 0.4 mm 2 mps 749 mmHg 79%
    11:00 +26°C° 0.4 mm 2 mps 749 mmHg 74%
    12:00 +26°C° 0.7 mm 2 mps 749 mmHg 73%
    13:00 +26°C° 0.7 mm 2 mps 749 mmHg 72%
    14:00 +27°C° 0.7 mm 2 mps 749 mmHg 71%
    15:00 +27°C° 0.4 mm 2 mps 749 mmHg 71%
    16:00 +27°C° 0.4 mm 2 mps 749 mmHg 71%
    17:00 +27°C° 0.4 mm 2 mps 749 mmHg 71%
    18:00 +26°C° 0.2 mm 2 mps 749 mmHg 76%
    19:00 +25°C° 0.2 mm 2 mps 749 mmHg 81%
    20:00 +23°C° 0.2 mm 2 mps 749 mmHg 86%
    21:00 +21°C° 0.2 mm 2 mps 749 mmHg 88%
    22:00 +21°C° 0.2 mm 2 mps 750 mmHg 91%
    23:00 +20°C° 0.2 mm 2 mps 750 mmHg 93%

    Day after tomorrow, 23 July, Sunday

    Time Temperature Precipitation Wind Pressure Humidity
    00:00 +19°C° 0 mm 2 mps 750 mmHg 94%
    01:00 +19°C° 0 mm 2 mps 750 mmHg 95%
    02:00 +18°C° 0 mm 2 mps 750 mmHg 95%
    03:00 +18°C° 0 mm 2 mps 750 mmHg 95%
    04:00 +18°C° 0 mm 2 mps 750 mmHg 95%
    05:00 +18°C° 0 mm 2 mps 750 mmHg 94%
    06:00 +19°C° 0 mm 2 mps 750 mmHg 91%
    07:00 +20°C° 0 mm 2 mps 750 mmHg 87%
    08:00 +21°C° 0 mm 3 mps 750 mmHg 84%
    09:00 +22°C° 0 mm 3 mps 750 mmHg 78%
    10:00 +24°C° 0 mm 3 mps 750 mmHg 71%
    11:00 +26°C° 0 mm 4 mps 750 mmHg 65%
    12:00 +26°C° 0 mm 4 mps 750 mmHg 62%
    13:00 +27°C° 0 mm 3 mps 750 mmHg 60%
    14:00 +28°C° 0 mm 3 mps 749 mmHg 58%
    15:00 +28°C° 0 mm 3 mps 749 mmHg 58%
    16:00 +28°C° 0 mm 3 mps 749 mmHg 59%
    17:00 +28°C° 0 mm 3 mps 749 mmHg 60%
    18:00 +27°C° 0 mm 3 mps 749 mmHg 65%
    19:00 +25°C° 0 mm 2 mps 749 mmHg 70%
    20:00 +24°C° 0 mm 2 mps 749 mmHg 76%
    21:00 +23°C° 0 mm 2 mps 748 mmHg 77%
    22:00 +21°C° 0 mm 2 mps 748 mmHg 78%
    23:00 +20°C° 0 mm 2 mps 748 mmHg 79%

    24 July, Monday

    Time Temperature Precipitation Wind Pressure Humidity
    00:00 +20°C° 0 mm 2 mps 748 mmHg 80%
    01:00 +19°C° 0 mm 3 mps 748 mmHg 80%
    02:00 +19°C° 0 mm 3 mps 748 mmHg 81%
    03:00 +19°C° 0.2 mm 2 mps 748 mmHg 83%
    04:00 +19°C° 0.2 mm 2 mps 747 mmHg 84%
    05:00 +18°C° 0.2 mm 2 mps 747 mmHg 86%
    06:00 +19°C° 0 mm 3 mps 747 mmHg 84%
    07:00 +21°C° 0 mm 3 mps 747 mmHg 81%
    08:00 +22°C° 0 mm 3 mps 747 mmHg 79%
    09:00 +24°C° 0 mm 3 mps 747 mmHg 73%
    10:00 +26°C° 0 mm 4 mps 747 mmHg 68%
    11:00 +28°C° 0 mm 4 mps 747 mmHg 62%
    12:00 +28°C° 0.1 mm 4 mps 746 mmHg 60%
    13:00 +29°C° 0.1 mm 4 mps 746 mmHg 58%
    14:00 +30°C° 0.1 mm 4 mps 746 mmHg 56%
    15:00 +29°C° 0 mm 3 mps 746 mmHg 59%
    16:00 +29°C° 0 mm 3 mps 745 mmHg 62%
    17:00 +29°C° 0 mm 3 mps 745 mmHg 64%
    18:00 +28°C° 0.4 mm 3 mps 745 mmHg 70%
    19:00 +26°C° 0.4 mm 3 mps 745 mmHg 75%
    20:00 +25°C° 0.4 mm 3 mps 744 mmHg 80%
    21:00 +24°C° 0.3 mm 3 mps 744 mmHg 81%
    22:00 +22°C° 0.3 mm 3 mps 744 mmHg 82%
    23:00 +22°C° 0.3 mm 4 mps 743 mmHg 83%

    25 July, Tuesday

    Time Temperature Precipitation Wind Pressure Humidity
    00:00 +21°C° 1.4 mm 4 mps 743 mmHg 85%
    01:00 +21°C° 1.4 mm 4 mps 743 mmHg 86%
    02:00 +20°C° 1.4 mm 4 mps 743 mmHg 88%
    03:00 +20°C° 0.6 mm 4 mps 743 mmHg 88%
    04:00 +20°C° 0.6 mm 4 mps 743 mmHg 88%
    05:00 +19°C° 0.6 mm 4 mps 742 mmHg 89%
    06:00 +20°C° 0.1 mm 4 mps 742 mmHg 86%
    07:00 +20°C° 0.1 mm 5 mps 742 mmHg 84%
    08:00 +21°C° 0.1 mm 5 mps 742 mmHg 81%
    09:00 +22°C° 0.3 mm 5 mps 742 mmHg 79%
    10:00 +23°C° 0.3 mm 5 mps 742 mmHg 76%
    11:00 +25°C° 0.3 mm 5 mps 742 mmHg 73%
    12:00 +26°C° 0.3 mm 5 mps 741 mmHg 71%
    13:00 +27°C° 0.3 mm 5 mps 741 mmHg 69%
    14:00 +28°C° 0.3 mm 4 mps 741 mmHg 67%
    15:00 +27°C° 1.8 mm 4 mps 741 mmHg 74%
    16:00 +26°C° 1.8 mm 3 mps 741 mmHg 81%
    17:00 +25°C° 1.8 mm 3 mps 741 mmHg 88%
    18:00 +24°C° 0.6 mm 2 mps 741 mmHg 89%
    19:00 +24°C° 0.6 mm 2 mps 741 mmHg 89%
    20:00 +23°C° 0.6 mm 1 mps 741 mmHg 90%
    21:00 +21°C° 0.3 mm 2 mps 741 mmHg 92%
    22:00 +21°C° 0.3 mm 2 mps 741 mmHg 93%
    23:00 +20°C° 0.3 mm 2 mps 741 mmHg 94%

    26 July, Wednesday

    Time Temperature Precipitation Wind Pressure Humidity
    00:00 +20°C° 1.2 mm 2 mps 741 mmHg 95%
    01:00 +20°C° 1.2 mm 3 mps 741 mmHg 96%
    02:00 +19°C° 1.2 mm 3 mps 741 mmHg 97%
    03:00 +19°C° 1.3 mm 4 mps 741 mmHg 96%
    04:00 +18°C° 1.3 mm 4 mps 741 mmHg 95%
    05:00 +17°C° 1.3 mm 5 mps 741 mmHg 95%
    06:00 +17°C° 0.1 mm 5 mps 742 mmHg 93%
    07:00 +17°C° 0.1 mm 5 mps 742 mmHg 92%
    08:00 +17°C° 0.1 mm 5 mps 743 mmHg 90%
    09:00 +19°C° 0 mm 4 mps 743 mmHg 85%
    10:00 +20°C° 0 mm 4 mps 744 mmHg 79%
    11:00 +21°C° 0 mm 4 mps 745 mmHg 74%
    12:00 +22°C° 0.2 mm 3 mps 745 mmHg 73%
    13:00 +22°C° 0.2 mm 3 mps 745 mmHg 73%
    14:00 +22°C° 0.2 mm 3 mps 745 mmHg 73%
    15:00 +22°C° 0.1 mm 3 mps 746 mmHg 74%
    16:00 +23°C° 0.1 mm 2 mps 746 mmHg 75%
    17:00 +23°C° 0.1 mm 2 mps 746 mmHg 76%
    18:00 +21°C° 0.1 mm 2 mps 746 mmHg 79%
    19:00 +20°C° 0.1 mm 2 mps 746 mmHg 82%
    20:00 +20°C° 0.1 mm 2 mps 746 mmHg 84%
    21:00 +19°C° 0 mm 2 mps 746 mmHg 87%
    22:00 +18°C° 0 mm 2 mps 747 mmHg 90%
    23:00 +17°C° 0 mm 2 mps 747 mmHg 93%
    Show more